Location: Campo Alegre
(10.4289°N, 66.6519°W)
Time: 23:18:09
(UTC+00:00)

Cosmos 192 - Pass Details

Date: 29 May 2024
Orbit: 698 x 711 km, 74.0° (Epoch: 21 June)

Event Time Altitude Azimuth Distance (km) Brightness Sun altitude
Rises 23:26:47 0° 349° (N) 3,095 8.2 -10.3°
Reaches altitude 10° 23:29:06 10° 350° (N) 2,177 7.3 -10.8°
Maximum altitude 23:34:01 80° 77° (ENE) 723 4.3 -11.9°
Drops below altitude 10° 23:38:56 10° 164° (SSE) 2,178 6.5 -13.0°
Enters shadow 23:39:45 - 165° (SSE) 2,496 6.8 -13.2°
